“In life, you're either a passenger or a pilot. It’s your choice.”

WELCOME TO YOUR AVIATION DREAM!

What's new Up There Icon

WHAT’S NEW HERE?

4000+ aviation terms, acronyms and definitions!
Make your study a little easier with the aviation glossaries that gather over 4000 terms and acronyms extracted from weather, communications, technical and more general topics…
Partnership Icon

PARTNESHIP ANNOUNCEMENT

I am proud to announce a partnership with nizul Logo, study partner of every pilot who wants to consolidate their ground school knowledge and master their written examination.

Try Me Icon

ALL YOURS FOR 30 MINUTES!

Not sure you’d get along with a freelance instructor? How about giving it a try with a 30 minute flight?
My treat! All free.

Resources Tool Box

STUDENT RESOURCES

As a registered student training with me, you get access to a whole lot of files, tools, documents, aviation glossaries, videos, quizzes, sample tests, etc… 

Control Tower Icon

QUESTIONS? CHECK F.A.Q.

In aviation, the only stupid question is the one you didn’t ask. And there is a big chance yours has already been answered in the FAQ. Check it out!

Brain Icon

ARE YOU WIRED FOR FLYING?

Flying an aircraft is usually not the most difficult part of the “problem” and it takes a certain mindset to deal with the other aspects of a flight. Find out wether…

THEY DID IT!

Meet those who refused to be the passengers of their lives, and learn about their experience.

QUICK FACTS

Aviation is a world of serious numbers.
Here are my own, and they count as much as the other ones.

0
YEARS OF
WISDOM
0
YEARS OF
SKY FUN
0
AMAZING
STUDENTS
0
HOURS OF
PURE EXCITEMENT

Grow some wings,
Come fly with me!

Vancouver Island Weather

METARs and TAFs.
VICTORIA INTL (CYYJ)
METAR:

CYYJ 160200Z 11006KT 30SM SCT250 20/08 A3001 RMK CI4 SLP163 DENSITY ALT 600FT

TAF:

TAF CYYJ 151738Z 1518/1618 10007KT P6SM FEW240 FM160400 VRB03KT P6SM FEW040 SCT160 FM161200 VRB03KT P6SM SCT010 RMK NXT FCST BY 160000Z

NANAIMO (CYCD)
METAR:

CYCD 160207Z 17005KT 060V210 30SM SCT250 22/08 A2999 WS RWY16 RMK CI3 SLP158 DENSITY ALT 900FT

TAF:

TAF CYCD 151738Z 1518/1604 01007KT P6SM FEW030 RMK NXT FCST BY 160000Z

LONG BEACH (CYAZ)
METAR:

CYAZ 160100Z 29010KT 15SM FEW220 15/10 A3006 RMK CC1 LAST STFD OBS/NXT 161300UTC SLP181

TAF:

TAF AMD TAF AMD CYAZ 151927Z 1519/1601 19005KT 11/2SM BR OVC003 TEMPO 1519/1521 6SM BR SCT003 FM152100 28010KT P6SM FEW008 FEW200 RMK NXT FCST WILL BE ISSUED AT 161445Z

For more in-depth weather information, please, check Collaborative Flight Planning Service

For all Runway conditions in CYYJ, please check

IIDS Web View

Windy’s Forecast & Observations